Showing default

GORIZONT 6, 13624

Orbit data source: Space-Track

GORIZONT 6, 13624 is a payload satellite owned by MSvyaz (CIS) in GEO that was launched on Wed, 20 Oct 1982 UTC via a PROTON-K/DM launch vehicle from the Tyuratam Missile And Space Complex (TTMTR). Payload-class satellites include a variety of spacecraft equipped with specific instruments for various scientific and technological missions. These include communications satellites like Starlink; space stations such as the ISS; scientific satellites like the Hubble; Earth observation satellites from companies like Planet Labs, Umbra, and HawkEye 360; GPS; miniature CubeSats for education and research; and military/defense satellites.

Loading next visibility...
Identifier
13624, 1982-103A
Orbit
GEO
Country
Flag of CISCIS
Related business
Manufacturer
NPO PM
Mission
Non-operational spacecraft
Bus & Motor
GORIZONT, Unknown motor
Mass
2,120 kg wet, ~2,000 kg dry
Launch date (UTC)
1982-10-20 (43 years ago)
Launch vehicle
PROTON-K/DM
Launch site
Tyuratam Missile And Space Complex (TTMTR)
Object type
Payload
Rocket body
Debris
Shape & HBR
Unknown
Radar Cross Section
Large (>1 m²)

Expand to show TLE details & history
Last TLE update: 1 day ago

TLE from 1 day ago
0 GORIZONT 6
1 13624U 82103A   25348.59079699  .00000134  00000-0  00000-0 0  9994
2 13624   7.7417 303.2077 0003545 330.5936 220.3404  1.00224855119094
Epoch: 2025-12-14T14:10Z
TLE epoch observation values (Epoch: 2025-12-14T14:10:44.859Z)
Latitude
-1.45978°
Longitude
-162.19378°
Altitude
35,810.887 km
Speed
3.073 km/s
True Right ascension
08h 55m 58s
True Declination
-1° 27' 30"
Sunlit
Object was in daylight at epoch
Visualization orbit readout
Latitude
Unknown
Longitude
Unknown
Altitude
Unknown
Speed
Unknown
Apparent Right ascension
Unknown
Apparent Declination
Unknown
Sunlit
N/A
Visualization observer readout
Local Sidereal Time
13:23:44
Azimuth
Unknown
Elevation
Unknown
Doppler factor
Unknown
Orbital elements
Apogee altitude
35,815.75 km
Perigee altitude
35,785.845 km
Semi-major axis
42,178.935 km
Eccentricity
0.00035
Inclination
7.7417°
RAAN
303.2077°
Arg. of periapsis
330.5936°
True anomaly
220.31411°
Mean anomaly
220.3404°
Eccentric anomaly
220.32726°
Mean motion
0.25055 °/min
Orbital period
1,436.82 mins
BSTAR
0
Loading maneuver chart data...
Computing Atmospheric mass density...
Loading historical data...
Loading historical data...
Loading historical data...
Loading historical data...
Loading historical data...
Loading historical data...
Loading historical data...

Documentation

Showing up to 5 results
|